User: anonymous   Login
Location: Meanaryar
(48.4161°N, 4.7315°W)
Time: 11:50:30
(UTC+00:00)
Language:

Cosmos 1844 Rocket - Orbit

View from above orbital plane
View from above orbital plane
View from above satellite
View from above satellite

Ground track
Ground track

The orbit data is extracted from the following two-line orbital elements,

1 17974U 87041B   20330.95500674 -.00000032 +00000-0 +77974-5 0  9997
2 17974 071.0064 139.7871 0016395 272.6300 250.1996 14.17271699734685
Epoch (UTC): 25 November 2020 22:55:12
Eccentricity: 0.0016395
inclination: 71.0064°
perigee height: 823 km
apogee height: 846 km
right ascension of ascending node: 139.7871°
argument of perigee: 272.6300°
revolutions per day: 14.17271699
mean anomaly at epoch: 250.1996°
orbit number at epoch: 73468

The dashed part of the orbit path shows where the satellite is in the earth's shadow,  

DLR